Other Public Products
Issued by NWS Charleston, SC

Current Version | Previous Version | Text Only | Print | Product List | Glossary On
Versions: 1 2 3 4 5 6 7 8 9 10 11 12 13 14 15 16 17 18 19 20 21 22 23 24 25 26 27 28 29 30 31 32 33 34 35 36 37 38 39 40 41 42 43 44 45 46 47 48 49 50
392
FPUS82 KCHS 280312
OPUCHS

TEST...KCHS/KSAV Gateway Observations...TEST
National Weather Service Charleston SC
1100 PM EDT SAT MAY 27 2017

NOTE: "fair" indicates few or no clouds below 12,000 feet with no
significant weather and/or obstructions to visibility.

SCZ050-WAZ558-NCZ071-TXZ119-213-PAZ071-DCZ001-FLZ074-172-MI076-
NYZ176-178-MAZ016-IL014-TNZ027-NJZ106-GAZ044-MD014-280400-

...Gateway Observations for Charleston International...

CITY           SKY/WX    TMP DP  RH WIND       PRES   REMARKS
Chas Airport   PTCLDY    73  68  84 S8        29.95R
Seattle        CLEAR     80  45  28 N8        30.04S
Charlotte      CLOUDY    76  66  71 SW7       29.91F
Dallas DFW     CLEAR     86  76  71 S10       29.72F HX  96
Dallas Love    CLEAR     87  74  64 S13       29.73F HX  95
Philladelphia  CLOUDY    65  59  81 SW6       29.91S
Wash National  CLOUDY    67  62  84 NE6       29.92S
Baltimore      CLOUDY    64  62  93 CALM      29.93R
Miami          PTCLDY    85  77  77 VRB7      30.03S HX  95
Detroit        MOCLDY    63  53  70 S3        29.90S
Newark         CLOUDY    64  57  78 E8        29.92R
Laguardia      MOCLDY    63  56  78 SE6       29.92S
J F K          MOCLDY    61  59  93 SE7       29.93S
Boston Logan   MOCLDY    55  50  83 SE7       29.94S
Ft. Lauderdale PTCLDY    85  75  72 S5        30.02S HX  93
Chicago O`Hare CLOUDY    65  53  65 E5        29.84R
Chicago Midway CLOUDY    62  53  72 E6        29.85R
Houston Bush   MOCLDY    81  73  76 S9        29.87S
Houston Hobby  CLOUDY    79  76  90 S10       29.88S
Nashville      CLOUDY    66  63  90 W5        29.92F THUNDER
Atlanta        MOCLDY    75  69  81 SW6       29.98R

$$

GAZ044-118-TXZ119-213-NCZ071-DCZ001-MDZ014-506-PAZ021-071-NJZ106-
NYZ176-178-MAZ106-OHZ011-021-055-MIZ076-KYZ091-ILZ014-INZ047-
MNZ060-ONZ431-280400-

...Gateway Observations for Savannah International...

CITY           SKY/WX    TMP DP  RH WIND       PRES   REMARKS
Savannah Arpt  CLEAR     74  63  68 S5        29.98R
Atlanta        MOCLDY    75  69  81 SW6       29.98R
Charlotte      CLOUDY    76  66  71 SW7       29.91F
Dallas DFW     CLEAR     86  76  71 S10       29.72F HX  96
Houston Bush   MOCLDY    81  73  76 S9        29.87S
Wash National  CLOUDY    67  62  84 NE6       29.92S
Wash Dulles    CLOUDY    64  62  93 CALM      29.92S
Baltimore      CLOUDY    64  62  93 CALM      29.93R
Philadelphia   CLOUDY    65  59  81 SW6       29.91S
Newark         CLOUDY    64  57  78 E8        29.92R
Laguardia      MOCLDY    63  56  78 SE6       29.92S
J F K          MOCLDY    61  59  93 SE7       29.93S
Boston         MOCLDY    55  50  83 SE7       29.94S
Pittsburg      PTCLDY    63  61  93 CALM      29.90S
Akron          PTCLDY    63  53  70 NE9       29.90R
Cleveland      MOCLDY    68  51  54 E8        29.92R
Cincinnati     CLOUDY    72  66  81 S14       29.85R
Columbus       CLOUDY    69  66  90 NE6       29.84S
Detroit        MOCLDY    63  53  70 S3        29.90S
Chicago O`Hare CLOUDY    65  53  65 E5        29.84R
Minneapolis    CLOUDY    67  48  50 S6        29.84S
Indianapolis   CLOUDY    70  62  76 N5        29.83R
Toronto Canada PTCLDY    55  54  94 SW3       29.91R

$$




USA.gov is the U.S. government's official web portal to all federal, state and local government web resources and services.